DW9371 Weather Reports


time (UTC)temp
C
wind
direction
speed
KPH
gust
KPH
rain 1hr
cm
rain 24hr
cm
rain mn
cm
humidity
%
barometer
mb
20260904220605 12 212 1.6 3.2 0.00 0.15 0.15 83 1020.4
20260904220105 13 208 0.0 4.8 0.00 0.15 0.15 82 1020.4
20260904210604 13 229 1.6 3.2 0.00 0.15 0.15 79 1019.9
20260904210105 13 226 3.2 11.3 0.00 0.15 0.15 79 1019.9
20260904200604 15 251 6.4 11.3 0.00 0.15 0.15 75 1019.5
20260904200105 15 257 4.8 19.3 0.00 0.15 0.15 75 1019.5
20260904190604 16 272 6.4 16.1 0.00 0.15 0.15 73 1019.1
20260904190105 16 244 8.0 16.1 0.00 0.15 0.15 73 1019.0
20260904180604 17 261 6.4 14.5 0.00 0.15 0.15 68 1018.4
20260904180105 17 255 9.7 22.5 0.00 0.15 0.15 68 1018.3
20260904170604 17 254 8.0 22.5 0.00 0.15 0.15 63 1017.9
20260904170112 17 261 8.0 24.1 0.00 0.15 0.15 63 1017.8
20260904160604 18 267 8.0 19.3 0.00 0.15 0.15 63 1017.5
20260904160105 18 249 11.3 20.9 0.00 0.15 0.15 62 1017.7
20260904150604 18 281 9.7 20.9 0.00 0.15 0.15 60 1017.2
20260904150105 18 286 11.3 20.9 0.00 0.15 0.15 60 1017.3
20260904140105 18 271 4.8 20.9 0.00 0.15 0.15 62 1016.7
20260904130604 18 280 4.8 16.1 0.00 0.15 0.15 70 1016.5
20260904130120 18 272 6.4 19.3 0.00 0.15 0.15 70 1016.4
20260904120604 19 294 8.0 19.3 0.00 0.15 0.15 72 1015.7
20260904120105 19 281 8.0 33.8 0.00 0.15 0.15 71 1015.6
20260904110604 19 257 4.8 20.9 0.00 0.15 0.15 73 1015.2
20260904100605 18 262 8.0 22.5 0.00 0.15 0.15 74 1014.7
20260904100105 18 279 11.3 24.1 0.00 0.15 0.15 74 1014.7
20260904090605 17 272 9.7 19.3 0.00 0.15 0.15 83 1014.1
20260904090104 17 243 9.7 24.1 0.00 0.15 0.15 83 1014.0
20260904080603 17 270 8.0 16.1 0.00 0.15 0.15 86 1013.4
20260904080104 17 280 4.8 20.9 0.00 0.15 0.15 87 1013.4
20260904070603 17 259 8.0 14.5 0.15 0.15 0.15 87 1013.0
20260904060603 19 201 6.4 14.5 0.00 0.00 0.00 88 1011.9
20260904060104 19 219 4.8 24.1 0.00 0.00 0.00 88 1012.0
20260904050603 19 189 8.0 25.7 0.00 0.00 0.00 85 1011.8
20260904050103 20 207 9.7 29.0 0.00 0.00 0.00 85 1011.8
20260904040603 19 177 9.7 24.1 0.00 0.00 0.00 87 1011.7
20260904030104 19 220 8.0 35.4 0.00 0.00 0.00 87 1012.7
20260904020603 19 215 11.3 25.7 0.00 0.00 0.00 87 1013.0
20260904010603 18 217 8.0 19.3 0.00 0.00 0.00 88 1013.6
20260904000603 18 209 6.4 22.5 0.00 0.00 0.00 87 1014.3
20260904000104 18 213 11.3 29.0 0.00 0.00 0.00 87 1014.2